TimeMST,TemperatureF,Dew PointF,Humidity,Sea Level PressureIn,VisibilityMPH,Wind Direction,Wind SpeedMPH,Gust SpeedMPH,PrecipitationIn,Events,Conditions,WindDirDegrees,DateUTC
12:19 AM,19.4,15.8,86,29.91,0.5,WSW,5.8,-,N/A,Snow,Snow,240,2013-11-05 07:19:00
12:38 AM,17.6,15.8,93,29.91,0.8,Calm,Calm,-,N/A,Snow,Snow,0,2013-11-05 07:38:00
12:58 AM,17.6,15.8,93,29.91,2.0,Calm,Calm,-,N/A,Snow,Light Snow,0,2013-11-05 07:58:00
1:18 AM,17.6,15.8,93,29.92,1.5,Calm,Calm,-,N/A,Snow,Light Snow,0,2013-11-05 08:18:00
1:39 AM,17.6,14.0,86,29.93,0.8,WSW,3.5,-,N/A,Snow,Snow,240,2013-11-05 08:39:00
1:59 AM,17.6,14.0,86,29.93,1.0,Calm,Calm,-,N/A,Snow,Snow,0,2013-11-05 08:59:00
2:19 AM,15.8,14.0,93,29.93,1.0,WSW,4.6,-,N/A,Snow,Snow,250,2013-11-05 09:19:00
2:38 AM,15.8,14.0,93,29.93,0.8,West,4.6,-,N/A,Snow,Light Snow,260,2013-11-05 09:38:00
2:59 AM,15.8,14.0,93,29.93,0.8,WSW,3.5,-,N/A,Snow,Light Snow,250,2013-11-05 09:59:00
3:19 AM,15.8,12.2,86,29.93,1.0,WSW,4.6,-,N/A,Snow,Light Snow,240,2013-11-05 10:19:00
3:39 AM,14.0,12.2,93,29.93,0.8,WSW,3.5,-,N/A,Snow,Snow,250,2013-11-05 10:39:00
3:59 AM,14.0,12.2,93,29.94,1.0,West,3.5,-,N/A,Snow,Snow,260,2013-11-05 10:59:00
4:18 AM,14.0,10.4,86,29.94,0.8,West,5.8,-,N/A,Snow,Snow,260,2013-11-05 11:18:00
4:38 AM,-9999,-9999,N/A,29.94,1.0,West,4.6,-,N/A,,Unknown,280,2013-11-05 11:38:00
4:59 AM,-9999,-9999,N/A,29.95,0.5,West,3.5,-,N/A,,Unknown,260,2013-11-05 11:59:00
5:19 AM,-9999,-9999,N/A,29.96,7.0,West,4.6,-,N/A,,Overcast,280,2013-11-05 12:19:00
5:38 AM,-9999,-9999,N/A,29.96,0.5,WNW,4.6,-,N/A,,Unknown,290,2013-11-05 12:38:00
5:59 AM,-9999,-9999,N/A,29.97,0.8,West,3.5,-,N/A,,Unknown,270,2013-11-05 12:59:00
6:19 AM,-9999,-9999,N/A,29.97,0.8,Calm,Calm,-,N/A,,Unknown,0,2013-11-05 13:19:00
6:39 AM,-9999,-9999,N/A,29.98,3.0,Calm,Calm,-,N/A,,Unknown,0,2013-11-05 13:39:00
6:59 AM,-9999,-9999,N/A,30.00,2.0,Calm,Calm,-,N/A,,Unknown,0,2013-11-05 13:59:00
7:19 AM,-9999,-9999,N/A,30.00,4.0,Calm,Calm,-,N/A,,Unknown,0,2013-11-05 14:19:00
7:39 AM,-9999,-9999,N/A,30.01,7.0,West,3.5,-,N/A,,Mostly Cloudy,280,2013-11-05 14:39:00
7:58 AM,-9999,-9999,N/A,30.02,5.0,Calm,Calm,-,N/A,,Haze,0,2013-11-05 14:58:00
8:19 AM,-9999,-9999,N/A,30.03,7.0,Calm,Calm,-,N/A,,Unknown,0,2013-11-05 15:19:00
8:39 AM,-9999,-9999,N/A,30.03,5.0,Calm,Calm,-,N/A,,Haze,0,2013-11-05 15:39:00
8:58 AM,-9999,-9999,N/A,30.03,4.0,Calm,Calm,-,N/A,,Unknown,0,2013-11-05 15:58:00
9:19 AM,-9999,-9999,N/A,30.04,4.0,Calm,Calm,-,N/A,,Unknown,0,2013-11-05 16:19:00
9:39 AM,-9999,-9999,N/A,30.04,5.0,Calm,Calm,-,N/A,,Unknown,0,2013-11-05 16:39:00
9:59 AM,-9999,-9999,N/A,30.05,5.0,WNW,3.5,-,N/A,,Unknown,290,2013-11-05 16:59:00
10:19 AM,-9999,-9999,N/A,30.06,7.0,Calm,Calm,-,N/A,,Mostly Cloudy,0,2013-11-05 17:19:00
10:38 AM,-9999,-9999,N/A,30.06,7.0,WSW,3.5,-,N/A,,Mostly Cloudy,250,2013-11-05 17:38:00
10:59 AM,-9999,-9999,N/A,30.07,5.0,Calm,Calm,-,N/A,,Unknown,0,2013-11-05 17:59:00
11:18 AM,-9999,-9999,N/A,30.07,4.0,Calm,Calm,-,N/A,,Unknown,0,2013-11-05 18:18:00
11:39 AM,-9999,-9999,N/A,30.07,2.5,Calm,Calm,-,N/A,,Unknown,0,2013-11-05 18:39:00
11:59 AM,-9999,-9999,N/A,30.07,1.5,Calm,Calm,-,N/A,,Unknown,0,2013-11-05 18:59:00
12:19 PM,-9999,-9999,N/A,30.07,1.5,Calm,Calm,-,N/A,,Unknown,0,2013-11-05 19:19:00
12:39 PM,-9999,-9999,N/A,30.07,7.0,SW,3.5,-,N/A,,Mostly Cloudy,230,2013-11-05 19:39:00
12:59 PM,-9999,-9999,N/A,30.07,7.0,West,5.8,-,N/A,,Mostly Cloudy,260,2013-11-05 19:59:00
1:19 PM,-9999,-9999,N/A,30.07,7.0,WSW,4.6,-,N/A,,Mostly Cloudy,250,2013-11-05 20:19:00
1:39 PM,-9999,-9999,N/A,30.07,10.0,WSW,4.6,-,N/A,,Scattered Clouds,240,2013-11-05 20:39:00
1:59 PM,15.8,14.0,93,30.08,7.0,Calm,Calm,-,N/A,,Scattered Clouds,0,2013-11-05 20:59:00
2:19 PM,15.8,14.0,93,30.09,7.0,Calm,Calm,-,N/A,,Scattered Clouds,0,2013-11-05 21:19:00
2:39 PM,15.8,14.0,93,30.09,7.0,Calm,Calm,-,N/A,,Clear,0,2013-11-05 21:39:00
2:59 PM,15.8,12.2,86,30.10,7.0,Calm,Calm,-,N/A,,Clear,0,2013-11-05 21:59:00
3:19 PM,14.0,12.2,93,30.11,7.0,Calm,Calm,-,N/A,,Clear,0,2013-11-05 22:19:00
3:39 PM,14.0,10.4,86,30.11,7.0,Calm,Calm,-,N/A,,Clear,0,2013-11-05 22:39:00
3:58 PM,14.0,10.4,86,30.12,7.0,Calm,Calm,-,N/A,,Clear,0,2013-11-05 22:58:00
4:19 PM,14.0,8.6,79,30.12,7.0,Calm,Calm,-,N/A,,Clear,0,2013-11-05 23:19:00
4:39 PM,14.0,8.6,79,30.13,7.0,Calm,Calm,-,N/A,,Clear,0,2013-11-05 23:39:00
4:59 PM,12.2,8.6,85,30.14,7.0,Calm,Calm,-,N/A,,Clear,0,2013-11-05 23:59:00
5:19 PM,12.2,6.8,79,30.15,7.0,Calm,Calm,-,N/A,,Clear,0,2013-11-06 00:19:00
5:39 PM,10.4,6.8,85,30.15,7.0,Calm,Calm,-,N/A,,Clear,0,2013-11-06 00:39:00
5:59 PM,10.4,6.8,85,30.16,7.0,Calm,Calm,-,N/A,,Clear,0,2013-11-06 00:59:00
6:19 PM,10.4,5.0,79,30.16,7.0,Calm,Calm,-,N/A,,Scattered Clouds,0,2013-11-06 01:19:00
6:38 PM,10.4,5.0,79,30.18,7.0,Calm,Calm,-,N/A,,Scattered Clouds,0,2013-11-06 01:38:00
6:59 PM,10.4,5.0,79,30.18,10.0,Calm,Calm,-,N/A,,Clear,0,2013-11-06 01:59:00
7:19 PM,8.6,5.0,85,30.18,10.0,SW,3.5,-,N/A,,Clear,220,2013-11-06 02:19:00
7:39 PM,10.4,5.0,79,30.18,10.0,SW,3.5,-,N/A,,Clear,220,2013-11-06 02:39:00
7:58 PM,10.4,6.8,85,30.19,7.0,SW,3.5,-,N/A,,Clear,220,2013-11-06 02:58:00
8:19 PM,10.4,8.6,92,30.20,10.0,SW,3.5,-,N/A,,Clear,220,2013-11-06 03:19:00
8:38 PM,10.4,8.6,92,30.20,10.0,Calm,Calm,-,N/A,,Clear,0,2013-11-06 03:38:00
8:59 PM,10.4,8.6,92,30.21,10.0,Calm,Calm,-,N/A,,Clear,0,2013-11-06 03:59:00
9:19 PM,10.4,8.6,92,30.22,10.0,SW,3.5,-,N/A,,Clear,220,2013-11-06 04:19:00
9:38 PM,10.4,8.6,92,30.23,10.0,Calm,Calm,-,N/A,,Clear,0,2013-11-06 04:38:00
9:59 PM,10.4,8.6,92,30.24,10.0,Calm,Calm,-,N/A,,Clear,0,2013-11-06 04:59:00
10:19 PM,10.4,8.6,92,30.23,10.0,Calm,Calm,-,N/A,,Clear,0,2013-11-06 05:19:00
10:39 PM,10.4,8.6,92,30.24,10.0,Calm,Calm,-,N/A,,Clear,0,2013-11-06 05:39:00
10:59 PM,10.4,8.6,92,30.24,10.0,SW,3.5,-,N/A,,Clear,220,2013-11-06 05:59:00
11:19 PM,10.4,8.6,92,30.24,10.0,SW,3.5,-,N/A,,Clear,220,2013-11-06 06:19:00
11:39 PM,10.4,8.6,92,30.24,10.0,Calm,Calm,-,N/A,,Clear,0,2013-11-06 06:39:00
11:59 PM,12.2,8.6,85,30.24,10.0,Calm,Calm,-,N/A,,Clear,0,2013-11-06 06:59:00